[[{"header":{"parameterUnit":"m.s-1","parameterCategory":1,"la1":30.2991,"la2":30.254,"lo1":-89.0895,"lo2":-89.0444,"dy":0.0017,"dx":0.0017,"nx":28,"ny":28,"refTime":"2024-10-12T09:00:00:Z","depth":0,"parameterNumber":2,"parameterNumberName":"U-component_of_WINDS"},"data":[0,0,0,0,0,0,0,0,0,0,0,0,0,0,0,0,0,0,0,0,0,0,0,0,0,0,0,0,0,0,0,0,0,0,0,0,0,0,0,0,0,0,0,0,0,0,0,0,0,0,0,0,0,0,0,0,0,0,4.6646,4.6649,0,4.6838,4.684,4.6842,4.679,4.6787,4.6783,4.6779,4.698,4.6989,4.6998,0,0,0,0,0,0,0,0,0,0,0,0,0,4.624,4.6247,4.6646,4.6649,4.6651,4.6838,4.684,4.6843,4.6791,4.6786,4.6782,4.6777,4.6977,4.6988,4.6999,0,0,0,0,0,0,0,0,0,0,0,0,0,4.6423,4.625,4.6646,4.6648,4.665,4.6837,4.684,4.6844,4.6792,4.6786,4.678,4.6775,4.6974,4.6987,4.7,4.7199,0,0,4.7041,4.7047,0,0,0,0,0,0,0,0,4.6412,4.6438,4.6645,4.6648,4.665,4.6784,4.6771,4.6963,4.6794,4.6738,4.6779,4.6772,4.692,4.6938,4.6986,4.7209,4.7217,4.7042,4.7051,4.7056,4.706,0,0,0,0,0,0,0,4.64,4.6429,4.6722,4.6648,4.6651,4.664,4.666,4.6807,4.686,4.6743,4.6739,4.6762,4.692,4.6974,4.6991,4.722,4.7042,4.7054,4.7062,4.7068,4.7616,4.7622,0,0,0,0,0,0,4.6384,4.6419,4.6716,4.6728,4.6514,4.6652,4.6674,4.6747,4.6858,4.6869,4.6767,4.6759,4.6953,4.6975,4.6998,4.7238,4.7056,4.7069,4.7077,4.761,4.7618,4.7625,0,0,0,0,0,0,4.6376,4.6411,4.6708,4.6573,4.661,4.6665,4.6748,4.6754,4.6807,4.6876,4.6886,4.6811,4.695,4.6979,4.7149,4.7244,4.7075,4.7087,4.7602,4.7612,4.7621,4.7721,0,0,0,0,0,0,4.6364,4.6408,4.6484,4.6575,4.6617,4.6856,4.6754,4.6762,4.683,4.6821,4.692,4.6931,4.6947,4.7129,4.7163,4.726,4.7098,4.7594,4.7607,4.7618,4.7709,4.7733,4.7753,0,0,0,0,0,4.635,4.6505,4.6488,4.6524,4.6712,4.6861,4.6886,4.69,4.6838,4.6914,4.6959,4.6928,4.7229,4.7147,4.7184,4.7287,4.7588,4.7603,4.7617,4.7699,4.7728,4.7752,0,0,0,0,0,0,4.6426,4.6517,4.6499,4.6688,4.6767,4.6852,4.6949,4.693,4.7029,4.7018,4.7032,4.7055,4.723,4.7275,4.7183,4.7486,4.7399,4.7422,4.7449,4.7477,4.7499,4.7484,4.7109,0,0,0,0,0,4.6464,4.6576,4.6651,4.681,4.6851,4.6893,4.6959,4.6963,4.7046,4.708,4.7137,4.722,4.7333,4.7408,4.7516,4.7716,4.7737,4.7805,4.7826,4.7844,4.7863,4.7973,4.8004,4.7673,4.7673,4.7672,0,0,4.6545,4.6609,4.6679,4.6827,4.6889,4.7006,4.6922,4.705,4.7137,4.71,4.7264,4.7309,4.7403,4.7589,4.7674,4.7633,4.796,4.7862,4.7876,4.7886,4.7991,4.8022,4.805,4.7683,4.7681,4.7679,0,0,4.6752,4.6812,4.6951,4.7015,4.7109,4.7136,4.7169,4.7258,4.7286,4.745,4.7425,4.753,4.7725,4.7793,4.7853,4.8086,4.8062,4.8121,4.8235,4.8342,4.8368,4.8391,4.8474,4.8504,4.814,4.8141,4.8141,0,4.6842,4.7016,4.7026,4.7156,4.7222,4.7192,4.7334,4.7396,4.7521,4.7568,4.752,4.7763,4.7824,4.8026,4.8083,4.8132,4.8172,4.811,4.8363,4.8386,4.8408,4.8488,4.8519,4.8147,4.8146,4.8146,4.8145,0,4.7121,4.7242,4.7344,4.7464,4.7542,4.7677,4.7709,4.7787,4.7784,4.7817,4.7985,4.8058,4.818,4.8228,4.8227,4.843,4.8402,4.8358,4.8272,4.8446,4.8521,4.8552,4.8157,4.8154,4.8152,4.8151,0,0,4.7382,4.7505,4.7542,4.7596,4.7698,4.7793,4.7927,4.8045,4.8111,4.8199,4.8313,4.8478,4.8439,4.8507,4.8514,4.8607,4.8788,4.8552,4.8555,4.8594,4.9016,4.9048,4.9083,4.8772,4.8778,4.8783,4.9008,0,4.7598,4.7833,4.7846,4.806,4.8172,4.8145,4.8263,4.8339,4.8373,4.8475,4.8514,4.863,4.8569,4.861,4.8701,4.8746,4.8873,4.873,4.8879,4.8885,4.8856,4.9123,4.9157,4.9366,4.9038,4.9043,4.9046,0,4.7882,4.7976,4.8201,4.8286,4.8334,4.8439,4.8548,4.8645,4.8731,4.875,4.8826,4.8819,4.8959,4.8867,4.906,4.8963,4.9025,4.9056,4.9065,4.9079,4.8976,4.9145,4.9433,4.9465,4.9093,4.9089,4.9086,0,4.8049,4.8233,4.8391,4.8438,4.8542,4.8616,4.8663,4.8743,4.8813,4.8909,4.8955,4.9067,4.9128,4.9215,4.924,4.9171,4.9433,4.9343,4.9453,4.9453,4.9509,4.9505,4.9812,4.9549,4.9549,4.9548,4.9548,0,4.829,4.8428,4.8468,4.8565,4.872,4.8734,4.8887,4.893,4.9001,4.9107,4.9092,4.9192,4.9218,4.9324,4.9344,4.9501,4.9529,4.9549,4.9552,4.955,4.9548,4.9591,4.9577,4.9557,4.9555,4.9553,4.9552,0,4.8503,4.8535,4.8706,4.8789,4.8814,4.8924,4.8996,4.9091,4.9122,4.9257,4.929,4.9341,4.9464,4.9497,4.9645,4.9659,4.9844,4.9834,4.9814,4.9814,4.9922,4.9912,5.0268,5.0315,5.0021,5.0024,5.0026,0,4.8655,4.876,4.8855,4.8924,4.8973,4.9085,4.9156,4.9175,4.9249,4.9355,4.9437,4.9558,4.9656,4.9855,4.9906,5.002,5.0013,5.013,5.003,5.0024,5.0015,5.0008,5.0019,5.0149,5.0152,5.0154,5.0156,0,4.892,4.893,4.9032,4.914,4.9224,4.9311,4.9393,4.9451,4.9482,4.9567,4.9692,4.9767,4.9918,5.0039,5.0153,5.0203,5.0186,5.0187,5.0219,5.0218,5.0202,5.0212,4.9866,5.0179,5.0177,5.0175,5.0174,5.0173,4.9107,4.9199,4.928,4.9394,4.9458,4.9536,4.9628,4.9671,4.9775,4.9898,4.9903,5.0039,5.0123,5.0275,5.0331,5.0439,5.0404,5.0449,5.0461,5.0472,5.0481,5.0184,5.046,5.0459,5.0459,5.0458,5.0458,0,4.9371,4.9422,4.9526,4.9641,4.9732,4.9705,4.9795,4.9873,4.9992,5.0071,5.0167,5.0311,5.0428,5.0489,5.0605,5.068,5.0675,5.071,5.0705,5.0717,5.0506,5.0467,5.0712,5.0712,5.0712,5.0712,5.0712,5.0712,4.9519,4.9674,4.9694,4.9881,4.9931,5.0063,5.0117,5.0189,5.0251,5.0412,5.0509,5.0547,5.0619,5.074,5.0847,5.0862,5.0906,5.0945,5.0956,5.0758,5.0732,5.0707,5.067,5.0955,5.0955,5.1158,5.116,5.1161]},{"header":{"parameterUnit":"m.s-1","parameterCategory":1,"la1":30.2991,"la2":30.254,"lo1":-89.0895,"lo2":-89.0444,"dy":0.0017,"dx":0.0017,"nx":28,"ny":28,"refTime":"2024-10-12T09:00:00:Z","depth":0,"parameterNumber":3,"parameterNumberName":"V-component_of_WINDS"},"data":[0,0,0,0,0,0,0,0,0,0,0,0,0,0,0,0,0,0,0,0,0,0,0,0,0,0,0,0,0,0,0,0,0,0,0,0,0,0,0,0,0,0,0,0,0,0,0,0,0,0,0,0,0,0,0,0,0,0,-0.627,-0.627,0,-0.6276,-0.6276,-0.6276,-0.6276,-0.6276,-0.6276,-0.6276,-0.6282,-0.6282,-0.6282,0,0,0,0,0,0,0,0,0,0,0,0,0,-0.6258,-0.6259,-0.627,-0.627,-0.627,-0.6276,-0.6276,-0.6276,-0.6276,-0.6276,-0.6276,-0.6276,-0.6282,-0.6282,-0.6282,0,0,0,0,0,0,0,0,0,0,0,0,0,-0.6264,-0.6259,-0.627,-0.6271,-0.6271,-0.6276,-0.6276,-0.6276,-0.6276,-0.6276,-0.6276,-0.6276,-0.6281,-0.6282,-0.6282,-0.6287,0,0,-0.6283,-0.6283,0,0,0,0,0,0,0,0,-0.6264,-0.6264,-0.6271,-0.6271,-0.6271,-0.6275,-0.6274,-0.628,-0.6276,-0.6274,-0.6276,-0.6276,-0.628,-0.628,-0.6282,-0.6287,-0.6288,-0.6283,-0.6284,-0.6284,-0.6284,0,0,0,0,0,0,0,-0.6263,-0.6264,-0.6272,-0.6271,-0.6271,-0.6271,-0.6271,-0.6275,-0.6277,-0.6274,-0.6274,-0.6275,-0.628,-0.6281,-0.6282,-0.6288,-0.6283,-0.6284,-0.6284,-0.6284,-0.6298,-0.6298,0,0,0,0,0,0,-0.6263,-0.6264,-0.6272,-0.6273,-0.6267,-0.6271,-0.6272,-0.6274,-0.6277,-0.6278,-0.6275,-0.6275,-0.6281,-0.6281,-0.6282,-0.6288,-0.6284,-0.6284,-0.6284,-0.6298,-0.6298,-0.6299,0,0,0,0,0,0,-0.6262,-0.6263,-0.6272,-0.6268,-0.6269,-0.6272,-0.6274,-0.6274,-0.6276,-0.6278,-0.6278,-0.6276,-0.6281,-0.6281,-0.6286,-0.6288,-0.6284,-0.6285,-0.6298,-0.6298,-0.6298,-0.63,0,0,0,0,0,0,-0.6262,-0.6263,-0.6265,-0.6268,-0.627,-0.6276,-0.6274,-0.6274,-0.6276,-0.6276,-0.6279,-0.628,-0.628,-0.6285,-0.6286,-0.6289,-0.6285,-0.6298,-0.6298,-0.6298,-0.63,-0.63,-0.6301,0,0,0,0,0,-0.6262,-0.6265,-0.6265,-0.6266,-0.6272,-0.6276,-0.6277,-0.6278,-0.6276,-0.6278,-0.628,-0.6279,-0.6288,-0.6286,-0.6287,-0.6289,-0.6298,-0.6298,-0.6298,-0.63,-0.63,-0.6301,0,0,0,0,0,0,-0.6262,-0.6265,-0.6266,-0.627,-0.6273,-0.6276,-0.6278,-0.6278,-0.6281,-0.6281,-0.6282,-0.6283,-0.6287,-0.6289,-0.6286,-0.6294,-0.6293,-0.6293,-0.6293,-0.6294,-0.6294,-0.6294,-0.6285,0,0,0,0,0,-0.6262,-0.6266,-0.6269,-0.6272,-0.6274,-0.6276,-0.6278,-0.6278,-0.6281,-0.6282,-0.6284,-0.6287,-0.629,-0.6292,-0.6295,-0.63,-0.6301,-0.6303,-0.6303,-0.6303,-0.6304,-0.6307,-0.6308,-0.63,-0.63,-0.63,0,0,-0.6264,-0.6266,-0.6268,-0.6272,-0.6275,-0.6278,-0.6277,-0.628,-0.6283,-0.6283,-0.6287,-0.6289,-0.6292,-0.6297,-0.6299,-0.6298,-0.6306,-0.6304,-0.6304,-0.6304,-0.6307,-0.6308,-0.6309,-0.63,-0.63,-0.63,0,0,-0.6267,-0.627,-0.6273,-0.6275,-0.6279,-0.628,-0.6281,-0.6284,-0.6285,-0.629,-0.629,-0.6293,-0.6299,-0.6301,-0.6303,-0.6309,-0.6308,-0.631,-0.6312,-0.6315,-0.6316,-0.6316,-0.6318,-0.6319,-0.631,-0.631,-0.631,0,-0.6268,-0.6273,-0.6275,-0.6278,-0.628,-0.6281,-0.6285,-0.6287,-0.6291,-0.6293,-0.6292,-0.6299,-0.6301,-0.6307,-0.6308,-0.631,-0.6311,-0.6309,-0.6316,-0.6316,-0.6317,-0.6319,-0.6319,-0.631,-0.631,-0.631,-0.631,0,-0.6274,-0.6278,-0.628,-0.6285,-0.6287,-0.6291,-0.6293,-0.6295,-0.6296,-0.6298,-0.6303,-0.6305,-0.6309,-0.6311,-0.6311,-0.6316,-0.6316,-0.6315,-0.6313,-0.6317,-0.6319,-0.632,-0.6311,-0.631,-0.631,-0.631,0,0,-0.6278,-0.6283,-0.6284,-0.6286,-0.629,-0.6293,-0.6297,-0.6301,-0.6303,-0.6306,-0.6309,-0.6315,-0.6314,-0.6316,-0.6317,-0.632,-0.6325,-0.6319,-0.6319,-0.632,-0.6331,-0.6331,-0.6332,-0.6325,-0.6325,-0.6325,-0.633,0,-0.6282,-0.6289,-0.629,-0.6296,-0.63,-0.6301,-0.6304,-0.6307,-0.6309,-0.6312,-0.6314,-0.6318,-0.6317,-0.6319,-0.6321,-0.6323,-0.6327,-0.6323,-0.6328,-0.6328,-0.6326,-0.6333,-0.6333,-0.6338,-0.6331,-0.6331,-0.6331,0,-0.6287,-0.6291,-0.6297,-0.6301,-0.6303,-0.6306,-0.631,-0.6313,-0.6316,-0.6318,-0.632,-0.6321,-0.6326,-0.6324,-0.633,-0.6328,-0.633,-0.6331,-0.6332,-0.6332,-0.633,-0.6333,-0.6339,-0.634,-0.6333,-0.6332,-0.6332,0,-0.6289,-0.6295,-0.63,-0.6302,-0.6307,-0.6309,-0.6311,-0.6314,-0.6317,-0.6321,-0.6322,-0.6326,-0.6328,-0.6332,-0.6334,-0.6332,-0.634,-0.6338,-0.6341,-0.6341,-0.6342,-0.6342,-0.6349,-0.6344,-0.6344,-0.6344,-0.6344,0,-0.6293,-0.6297,-0.6301,-0.6303,-0.6308,-0.631,-0.6314,-0.6317,-0.632,-0.6323,-0.6325,-0.6328,-0.6331,-0.6334,-0.6336,-0.6341,-0.6342,-0.6343,-0.6343,-0.6343,-0.6342,-0.6344,-0.6343,-0.6344,-0.6344,-0.6344,-0.6344,0,-0.6296,-0.6298,-0.6303,-0.6308,-0.6309,-0.6312,-0.6316,-0.6319,-0.6321,-0.6325,-0.6327,-0.633,-0.6334,-0.6337,-0.6342,-0.6344,-0.6349,-0.6349,-0.6348,-0.6348,-0.635,-0.635,-0.6358,-0.6359,-0.6354,-0.6354,-0.6354,0,-0.6298,-0.6301,-0.6306,-0.6308,-0.631,-0.6314,-0.6317,-0.632,-0.6322,-0.6327,-0.6329,-0.6334,-0.6338,-0.6345,-0.6348,-0.6352,-0.6352,-0.6355,-0.6353,-0.6352,-0.6352,-0.6352,-0.6352,-0.6355,-0.6355,-0.6355,-0.6355,0,-0.6302,-0.6303,-0.6307,-0.6311,-0.6314,-0.6318,-0.6321,-0.6323,-0.6327,-0.633,-0.6334,-0.6337,-0.6343,-0.6347,-0.6352,-0.6355,-0.6355,-0.6356,-0.6357,-0.6356,-0.6354,-0.6355,-0.6348,-0.6355,-0.6355,-0.6355,-0.6355,-0.6355,-0.6304,-0.6307,-0.6311,-0.6315,-0.6318,-0.6321,-0.6324,-0.6327,-0.6331,-0.6336,-0.6338,-0.6342,-0.6347,-0.6353,-0.6356,-0.636,-0.6359,-0.636,-0.6361,-0.6361,-0.6361,-0.6354,-0.636,-0.636,-0.636,-0.636,-0.636,0,-0.6308,-0.6311,-0.6315,-0.632,-0.6323,-0.6324,-0.6328,-0.6331,-0.6335,-0.6339,-0.6343,-0.6348,-0.6353,-0.6356,-0.6361,-0.6363,-0.6364,-0.6365,-0.6364,-0.6365,-0.6361,-0.636,-0.6364,-0.6364,-0.6364,-0.6364,-0.6364,-0.6364,-0.631,-0.6315,-0.6317,-0.6323,-0.6326,-0.6331,-0.6333,-0.6336,-0.634,-0.6346,-0.6349,-0.6352,-0.6356,-0.6361,-0.6365,-0.6366,-0.6368,-0.6368,-0.6369,-0.6365,-0.6365,-0.6365,-0.6363,-0.6369,-0.6369,-0.6373,-0.6373,-0.6373]}]]